Weather in San Juan de los Morros

Venezuela     9°54′57″N   67°20′46″W
temp.,
°C
wind,
m/s
gust,
m/s
humid.,
%
clouds,
%
prec.,
mm/h
press.,
hPa
HPBL,
m
13 may, thu
thu1323:00+21nne23835 0.0 101567
02:00+20nne118714 0.0 101539
05:00+19nne22895 0.0 101442
08:00+23ene11705 0.0 1015258
11:00+29se34435 0.0 10151590
14:00+31sse343837 0.0 10122239
17:00+29se344016 0.0 10101659
20:00+24ene11545 0.0 101215
14 may, fri
fri1423:00+21ne11756 0.0 101421
02:00+20nne228740 0.0 101442
05:00+20nne2286100 0.0 101436
08:00+24e116699 0.0 1015257
11:00+29sse334818 0.0 10151629
14:00+31sse343859 0.0 10112219
17:00+30se343994 0.0 10101980
20:00+25ne115539 0.0 101211
15 may, sat
sat1523:00+25ene116298 0.0 101437
02:00+21nne2280100 0.0 101343
05:00+22ne1176100 0.0 101455
08:00+24ese116874 0.0 1015315
11:00+29se235055 0.0 10141574
14:00+31sse453969 0.0 10112209
17:00+29se344393 0.0 10091290
20:00+26ene115143 0.0 101113
16 may, sun
sun1623:00+22nne22696 0.0 101334
02:00+21ne117947 0.0 101322
05:00+20ne118439 0.0 101317
08:00+24ene116669 0.0 1015302
11:00+29se34479 0.0 10151741
14:00+31sse4436100 0.0 10112440
17:00+30se2437100 0.0 10101937
20:00+24ese116748 0.0 101313
17 may, mon
mon1723:00+24ne1168100 0.1 101519
02:00+23ne1171100 0.3 101317
05:00+22ne128012 0.1 101446
08:00+24e12700 0.1 1015378
11:00+29se344948 0.1 10151744
14:00+31sse453877 0.1 10112260
17:00+30se3440100 0.0 10101394
20:00+26ene115141 0.0 101314